Flag for U.S.A. Weather past 2 weeks in Elizabeth, New Jersey, U.S.A.

Now
39 °F

Passing clouds.


Feels Like: 30 °F
Forecast: 36 / 43 °F
Wind: 16 mph from Northwest

Location: Newark International Airport

Current Time: Dec 18, 2014 at 6:25:44 PM

Latest Report: Dec 18, 2014 at 5:51 PM


Visibility: 10 mi

Pressure: 29.98 "Hg

Humidity: 60%

Dew point: 26 °F

Location of ElizabethLocation

Historic Weather in Elizabeth — Graph

°F

Elizabeth temperature yesterday

Maximum temperature yesterday: 53 °F (at 10:51 AM)
Minimum temperature yesterday: 40 °F (at 11:51 PM)
Average temperature yesterday: 47 °F

Past Weeks' High & Low Weather Summary

 TemperatureHumidityPressure
High53 °F (Dec 17, 10:51 AM)100% (Dec 6, 12:51 AM)30.69 "Hg (Dec 6, 12:51 AM)
Low24 °F (Dec 8, 3:51 AM)30% (Dec 7, 4:51 PM)29.60 "Hg (Dec 10, 2:51 PM)
Average39 °F70%30.08 "Hg
* Reported Dec 3 4:51 PM — Dec 18 4:51 PM, Elizabeth, Weather by CustomWeather, © 2014

Note: Actual official high and low records may vary slightly from our data, if they occured in-between our weather recording intervals... More about our weather records

Advertising

Elizabeth weather history for previous 24 hours

 ConditionsComfort  
Time TempWeatherWind HumidityBarometerVisibility
4:51 PM
Dec 18
40 °FPassing clouds.20 mph55%29.98 "Hg10 mi
3:51 PM41 °FPartly sunny.22 mph53%29.97 "Hg10 mi
2:51 PM42 °FPartly sunny.17 mph49%29.95 "Hg10 mi
1:51 PM42 °FPartly sunny.18 mph47%29.95 "Hg10 mi
12:51 PM42 °FPartly sunny.16 mph47%29.96 "Hg10 mi
11:51 AM41 °FPartly sunny.14 mph49%29.98 "Hg10 mi
10:51 AM42 °FPartly sunny.16 mph47%29.99 "Hg10 mi
9:51 AM41 °FScattered clouds.20 mph49%30.00 "Hg10 mi
8:51 AM38 °FPartly sunny.14 mph53%29.99 "Hg10 mi
7:51 AM38 °FPartly sunny.21 mph53%29.98 "Hg10 mi
6:51 AM38 °FOvercast.9 mph53%29.97 "Hg10 mi
5:51 AM37 °FPassing clouds.10 mph57%29.96 "Hg10 mi
4:51 AM38 °FPassing clouds.14 mph58%29.93 "Hg10 mi
3:51 AM39 °FOvercast.13 mph60%29.92 "Hg10 mi
2:51 AM39 °FOvercast.12 mph57%29.92 "Hg10 mi
1:51 AM39 °FMostly cloudy.16 mph57%29.90 "Hg10 mi
12:51 AM39 °FPassing clouds.13 mph60%29.89 "Hg10 mi
11:51 PM
Dec 17
40 °FPassing clouds.15 mph58%29.89 "Hg10 mi
10:51 PM42 °FPartly cloudy.16 mph55%29.90 "Hg10 mi
9:51 PM43 °FPartly cloudy.15 mph56%29.90 "Hg10 mi
8:51 PM44 °FPassing clouds.13 mph55%29.90 "Hg10 mi
7:51 PM45 °FPassing clouds.14 mph56%29.89 "Hg10 mi
6:51 PM48 °FMostly cloudy.22 mph54%29.88 "Hg10 mi
Weather by CustomWeather, © 2014

See weather overviewHow to use our weather pages